Garden City, KS

2:42 PM CDT on May 22, 2018 (GMT -0500)
Garden City Regional

Weather History for KGCK - March, 2014

Change the Weather History Date:

Friday, March 14, 2014

  Actual Average Record
Temperature  
Mean Temperature 51 °F 43 °F  
Max Temperature 64 °F 57 °F 87 °F (1972)
Min Temperature 38 °F 29 °F 5 °F (1999)
Degree Days  
Heating Degree Days 14 22  
Month to date heating degree days 410 334  
Since 1 July heating degree days 4586 4358  
Cooling Degree Days 0 0  
Month to date cooling degree days 0 0  
Year to date cooling degree days 0 0  
Growing Degree Days 2 (Base 50)    
Moisture  
Dew Point 20 °F    
Average Humidity 35    
Maximum Humidity 54    
Minimum Humidity 15    
Precipitation  
Precipitation 0.00 in 0.04 in 0.70 in (1996)
Month to date precipitation 0.04 0.52  
Year to date precipitation 0.20 1.40  
Sea Level Pressure  
Sea Level Pressure 29.94 in    
Wind  
Wind Speed 11 mph (NNE)    
Max Wind Speed 25 mph    
Max Gust Speed 30 mph    
Visibility 10 miles    
Events      
T = Trace of Precipitation, MM = Missing Value Source: NWS Daily Summary

Daily Weather History Graph

Daily Weather History Graph

Search for Another Location

Airport or City:

Astronomy

Mar. 14, 2014 Rise Set
Actual Time 7:55 AM CDT 7:49 PM CDT
Civil Twilight 7:29 AM CDT 8:15 PM CDT
Nautical Twilight 6:58 AM CDT 8:45 PM CDT
Astronomical Twilight 6:28 AM CDT 9:16 PM CDT
Moon 6:14 PM CDT (3/14) 6:35 AM CDT (3/14)
Length of Visible Light 12h 46m
Length of Day
11h 53m
Waxing Gibbous, 96% of the Moon is Illuminated
Mar 14
Waxing Gibbous
Mar 16
Full
Mar 23
Last Quarter
Mar 30
New
Apr 7
First Quarter

Hourly Weather History & Observations

Time (CDT) Temp. Windchill Dew Point Humidity Pressure Visibility Wind Dir Wind Speed Gust Speed Precip Events Conditions
12:54 AM 50.0 °F - 21.0 °F 32% 29.76 in 10.0 mi West 11.5 mph - N/A   Clear
1:54 AM 46.0 °F 41.4 °F 23.0 °F 40% 29.76 in 10.0 mi WSW 9.2 mph - N/A   Clear
2:54 AM 46.0 °F 42.5 °F 21.9 °F 39% 29.78 in 10.0 mi WNW 6.9 mph - N/A   Clear
3:54 AM 51.1 °F - 16.0 °F 25% 29.78 in 10.0 mi NNW 15.0 mph - N/A   Mostly Cloudy
4:54 AM 46.9 °F - 17.1 °F 30% 29.81 in 10.0 mi North 20.7 mph - N/A   Partly Cloudy
5:54 AM 45.0 °F 36.6 °F 21.0 °F 39% 29.84 in 10.0 mi North 21.9 mph - N/A   Clear
6:54 AM 44.1 °F 35.9 °F 23.0 °F 43% 29.89 in 10.0 mi North 19.6 mph - N/A   Clear
7:54 AM 39.0 °F 30.6 °F 23.0 °F 53% 29.95 in 10.0 mi NNE 15.0 mph - N/A   Clear
8:54 AM 39.9 °F 31.8 °F 24.1 °F 53% 29.99 in 10.0 mi NNE 15.0 mph - N/A   Clear
9:54 AM 48.0 °F - 24.1 °F 39% 30.02 in 10.0 mi NNE 21.9 mph - N/A   Clear
10:54 AM 52.0 °F - 23.0 °F 32% 30.03 in 10.0 mi NE 18.4 mph - N/A   Clear
11:54 AM 55.0 °F - 21.9 °F 28% 30.05 in 10.0 mi NE 13.8 mph - N/A   Clear
12:54 PM 59.0 °F - 21.9 °F 24% 30.03 in 10.0 mi NNE 15.0 mph 19.6 mph N/A   Clear
1:54 PM 62.1 °F - 19.9 °F 20% 30.04 in 10.0 mi North 9.2 mph 18.4 mph N/A   Clear
2:54 PM 62.1 °F - 15.1 °F 16% 30.00 in 10.0 mi ENE 6.9 mph - N/A   Clear
3:54 PM 62.1 °F - 16.0 °F 17% 29.98 in 10.0 mi NNW 5.8 mph - N/A   Clear
4:54 PM 62.1 °F - 15.1 °F 16% 29.96 in 10.0 mi Calm Calm - N/A   Clear
5:54 PM 64.0 °F - 15.1 °F 15% 29.95 in 10.0 mi ENE 3.5 mph - N/A   Clear
6:54 PM 61.0 °F - 17.1 °F 18% 29.95 in 10.0 mi ESE 4.6 mph - N/A   Clear
7:54 PM 53.1 °F - 19.0 °F 26% 29.98 in 10.0 mi SSE 4.6 mph - N/A   Clear
8:54 PM 46.9 °F - 19.9 °F 34% 29.99 in 10.0 mi South 4.6 mph - N/A   Clear
9:54 PM 46.9 °F - 21.0 °F 36% 29.99 in 10.0 mi SSE 6.9 mph - N/A   Clear
10:54 PM 43.0 °F 37.2 °F 19.9 °F 40% 29.98 in 10.0 mi South 10.4 mph - N/A   Clear
11:54 PM 45.0 °F 39.7 °F 19.0 °F 36% 29.96 in 10.0 mi South 10.4 mph - N/A   Clear